{"data":{"norad_id":67767,"epoch":"2026-05-24T23:19:54.446880Z","epoch_age_seconds":80888,"freshness":"FRESH","line1":"1 67767U 26030D   26144.97215795  .00001856  00000+0  29485-3 0  9996","line2":"2 67767  51.8995 235.2088 0000400  99.7763 260.3243 14.76452110 16485","mean_motion":14.7645211,"eccentricity":4.0e-5,"inclination_deg":51.8995,"raan_deg":235.2088,"arg_perigee_deg":99.7763,"mean_anomaly_deg":260.3243,"bstar":0.00029485,"rev_number":1648,"period_min":97.531101093418,"perigee_km":640.26477178814,"apogee_km":640.82626638967,"semimajor_km":7018.6825190889,"source":"CELESTRAK","updated_at":"2026-05-25T13:38:07.254508Z"}}